Location: Kra?nica
(53.4833°N, 14.6167°E)
Time: 17:29:43
(UTC+00:00)

NANOSAT C BR1 - Visible Passes

Search period start: 07 October 2024 00:00
Search period end: 17 October 2024 00:00
Orbit: 539 x 549 km, 98.1° (Epoch: 06 October)

Date Brightness Start Highest point End Pass type
(mag) Time Alt. Az. Time Alt. Az. Time Alt. Az.
07 Oct ? 02:53:39 10° NE 02:56:57 25° E 03:00:13 10° SSE visible
07 Oct ? 04:27:59 10° N 04:31:38 38° WNW 04:35:15 10° SW visible
08 Oct ? 02:47:33 10° NE 02:50:40 22° E 02:53:45 10° SE visible
08 Oct ? 04:21:41 10° N 04:25:26 44° WNW 04:29:08 10° SW visible
09 Oct ? 02:41:26 10° NE 02:44:19 19° E 02:47:11 10° SE visible
09 Oct ? 04:15:21 10° N 04:19:09 51° WNW 04:22:56 10° SW visible
10 Oct ? 02:35:16 10° NE 02:37:53 17° E 02:40:29 10° SE visible
10 Oct ? 04:08:57 10° N 04:12:48 59° WNW 04:16:38 10° SSW visible
11 Oct ? 02:29:07 10° NE 02:31:23 15° E 02:33:38 10° SE visible
11 Oct ? 04:02:29 10° N 04:06:23 69° WNW 04:10:16 10° SSW visible
12 Oct ? 02:23:01 10° ENE 02:24:49 13° E 02:26:38 10° ESE visible
12 Oct ? 03:55:59 10° NNE 03:59:54 81° WNW 04:03:48 10° SSW visible
13 Oct ? 02:17:04 10° ENE 02:18:10 11° E 02:19:17 10° ESE visible
13 Oct ? 03:49:25 10° NNE 03:53:21 87° ESE 03:57:15 10° SSW visible
14 Oct ? 03:42:47 10° NNE 03:46:44 75° ESE 03:50:37 10° S visible
15 Oct ? 03:36:08 10° NNE 03:40:02 63° ESE 03:43:53 10° S visible
16 Oct ? 03:29:24 10° NNE 03:33:15 53° E 03:37:04 10° S visible
